Home   Weather   San Buenaventura   Past weeks

Flag for USA Past Weather in San Buenaventura, California, USA — Yesterday and Last 2 Weeks

Now
61 °F

Clear.


Feels Like: 61 °F
Forecast: 56 / 75 °F
Wind: 5 mph from Southeast

Location: Oxnard Airport

Current Time: Apr 25, 2017 at 11:32:50 pm

Latest Report: Apr 25, 2017 at 10:51 pm


Visibility: 10 mi

Pressure: 29.91 "Hg

Humidity: 65%

Dew Point: 49 °F

Location of San BuenaventuraLocation

Past Weather in San Buenaventura — Graph

°F

San Buenaventura Temperature Yesterday

Maximum temperature yesterday: 67 °F (at 3:51 pm)
Minimum temperature yesterday: 53 °F (at 4:51 am)
Average temperature yesterday: 60 °F

High & Low Weather Summary for the Past Weeks

 TemperatureHumidityPressure
High78 °F (Apr 21, 12:51 pm)100% (Apr 12, 11:51 pm)30.16 "Hg (Apr 12, 11:51 pm)
Low48 °F (Apr 14, 6:51 am)25% (Apr 21, 12:51 pm)29.81 "Hg (Apr 23, 7:51 pm)
Average60 °F73%29.98 "Hg
* Reported Apr 10 9:51 pm — Apr 25 9:51 pm, San Buenaventura, Weather by CustomWeather, © 2017

Note: Actual official high and low records may vary slightly from our data, if they occured in-between our weather recording intervals... More about our weather records

Advertising

San Buenaventura Weather History for the Previous 24 Hours

Scroll right to see more
 ConditionsComfort  
Time TempWeatherWind HumidityBarometerVisibility
9:51 pm
Tue, Apr 25
61 °FClear.9 mph67%29.91 "Hg10 mi
8:51 pm60 °FClear.12 mph69%29.90 "Hg10 mi
7:51 pm62 °FClear.14 mph65%29.87 "Hg10 mi
6:51 pm62 °FSunny.21 mph65%29.86 "Hg10 mi
5:51 pm63 °FSunny.16 mph63%29.86 "Hg10 mi
4:51 pm64 °FSunny.22 mph61%29.87 "Hg10 mi
3:51 pm66 °FSunny.16 mph59%29.88 "Hg10 mi
2:51 pm64 °FSunny.24 mph61%29.90 "Hg10 mi
1:51 pm65 °FSunny.20 mph61%29.90 "Hg10 mi
12:51 pm66 °FSunny.15 mph56%29.93 "Hg10 mi
11:51 am64 °FSunny.13 mph61%29.95 "Hg10 mi
10:51 am64 °FSunny.18 mph61%29.93 "Hg10 mi
9:51 am63 °FSunny.N/A63%29.93 "Hg10 mi
8:51 am60 °FSunny.3 mph75%29.93 "Hg10 mi
7:51 am58 °FSunny.3 mph78%29.92 "Hg10 mi
6:51 am54 °FSunny.No wind83%29.90 "Hg9 mi
5:51 am53 °FClear.5 mph86%29.86 "Hg10 mi
4:51 am54 °FClear.3 mph86%29.86 "Hg10 mi
3:51 am56 °FClear.5 mph84%29.85 "Hg10 mi
2:51 am57 °FClear.12 mph81%29.86 "Hg10 mi
1:51 am57 °FClear.14 mph81%29.87 "Hg10 mi
12:51 am57 °FClear.8 mph81%29.88 "Hg10 mi
11:51 pm
Mon, Apr 24
58 °FClear.8 mph81%29.87 "Hg10 mi
Weather by CustomWeather, © 2017

See weather overviewHow to use our weather pages